Time,TemperatureF,DewpointF,PressureIn,WindDirection,WindDirectionDegrees,WindSpeedMPH,WindSpeedGustMPH,Humidity,HourlyPrecipIn,Conditions,Clouds,dailyrainin,SoftwareType,DateUTC
2013-02-15 00:02:00,32.0,31.0,-100.00,WNW,293,8.0,9.0,97,0.00,,,0.00,,2013-02-15 05:02:00,
2013-02-15 00:12:00,32.0,31.0,-100.00,WNW,293,8.0,9.0,97,0.00,,,0.00,,2013-02-15 05:12:00,
2013-02-15 00:22:00,31.0,30.0,-100.00,West,270,9.0,15.0,96,0.00,,,0.00,,2013-02-15 05:22:00,
2013-02-15 00:32:00,31.0,29.0,-100.00,West,270,13.0,18.0,94,0.00,,,0.00,,2013-02-15 05:32:00,
2013-02-15 00:42:00,31.0,29.0,-100.00,West,270,13.0,18.0,94,0.00,,,0.00,,2013-02-15 05:42:00,
2013-02-15 00:52:00,30.0,28.0,-100.00,WNW,293,8.0,9.0,92,0.00,,,0.00,,2013-02-15 05:52:00,
2013-02-15 01:02:00,30.0,28.0,-100.00,West,270,8.0,13.0,92,0.00,,,0.00,,2013-02-15 06:02:00,
2013-02-15 01:11:00,29.0,27.0,-100.00,WNW,293,8.0,10.0,91,0.00,,,0.00,,2013-02-15 06:11:00,
2013-02-15 01:22:00,29.0,27.0,-100.00,WNW,293,8.0,10.0,91,0.00,,,0.00,,2013-02-15 06:22:00,
2013-02-15 01:32:00,29.0,27.0,-100.00,West,270,3.0,10.0,92,0.00,,,0.00,,2013-02-15 06:32:00,
2013-02-15 01:42:00,29.0,27.0,-100.00,West,270,3.0,10.0,92,0.00,,,0.00,,2013-02-15 06:42:00,
2013-02-15 01:52:00,29.0,27.0,-100.00,WNW,293,6.0,16.0,92,0.00,,,0.00,,2013-02-15 06:52:00,
2013-02-15 02:01:00,29.0,27.0,-100.00,West,270,9.0,17.0,92,0.00,,,0.00,,2013-02-15 07:01:00,
2013-02-15 02:11:00,29.0,27.0,-100.00,West,270,9.0,17.0,92,0.00,,,0.00,,2013-02-15 07:11:00,
2013-02-15 02:21:00,29.0,27.0,-100.00,West,270,9.0,16.0,91,0.00,,,0.00,,2013-02-15 07:21:00,
2013-02-15 02:31:00,28.0,25.0,-100.00,West,270,6.0,9.0,90,0.00,,,0.00,,2013-02-15 07:31:00,
2013-02-15 02:42:00,28.0,25.0,-100.00,West,270,6.0,9.0,90,0.00,,,0.00,,2013-02-15 07:42:00,
2013-02-15 02:52:00,28.0,26.0,-100.00,WNW,293,5.0,7.0,91,0.00,,,0.00,,2013-02-15 07:52:00,
2013-02-15 03:01:00,28.0,26.0,-100.00,West,270,5.0,5.0,92,0.00,,,0.00,,2013-02-15 08:01:00,
2013-02-15 03:11:00,28.0,26.0,-100.00,West,270,6.0,6.0,92,0.00,,,0.00,,2013-02-15 08:11:00,
2013-02-15 03:21:00,28.0,26.0,-100.00,West,270,6.0,6.0,92,0.00,,,0.00,,2013-02-15 08:21:00,
2013-02-15 03:32:00,28.0,26.0,-100.00,NW,315,0.0,0.0,92,0.00,,,0.00,,2013-02-15 08:32:00,
2013-02-15 03:42:00,28.0,26.0,-100.00,NW,315,0.0,0.0,92,0.00,,,0.00,,2013-02-15 08:42:00,
2013-02-15 03:53:00,27.0,25.0,-100.00,West,270,8.0,12.0,92,0.00,,,0.00,,2013-02-15 08:53:00,
2013-02-15 04:02:00,26.0,24.0,-100.00,West,270,8.0,13.0,93,0.00,,,0.00,,2013-02-15 09:02:00,
2013-02-15 04:12:00,26.0,24.0,-100.00,West,270,8.0,13.0,93,0.00,,,0.00,,2013-02-15 09:12:00,
2013-02-15 04:21:00,25.0,24.0,-100.00,West,270,6.0,7.0,94,0.00,,,0.00,,2013-02-15 09:21:00,
2013-02-15 04:32:00,25.0,24.0,-100.00,WNW,293,7.0,13.0,94,0.00,,,0.00,,2013-02-15 09:32:00,
2013-02-15 04:42:00,25.0,24.0,-100.00,WNW,293,7.0,13.0,94,0.00,,,0.00,,2013-02-15 09:42:00,
2013-02-15 04:52:00,25.0,24.0,-100.00,WSW,248,7.0,10.0,94,0.00,,,0.00,,2013-02-15 09:52:00,
2013-02-15 05:01:00,25.0,23.0,-100.00,West,270,6.0,15.0,93,0.00,,,0.00,,2013-02-15 10:01:00,
2013-02-15 05:11:00,25.0,23.0,-100.00,West,270,6.0,15.0,93,0.00,,,0.00,,2013-02-15 10:11:00,
2013-02-15 05:21:00,25.0,23.0,-100.00,West,270,10.0,13.0,92,0.00,,,0.00,,2013-02-15 10:21:00,
2013-02-15 05:31:00,24.0,22.0,-100.00,West,270,7.0,15.0,91,0.00,,,0.00,,2013-02-15 10:31:00,
2013-02-15 05:42:00,24.0,22.0,-100.00,West,270,7.0,15.0,91,0.00,,,0.00,,2013-02-15 10:42:00,
2013-02-15 05:52:00,24.0,22.0,-100.00,West,270,9.0,16.0,90,0.00,,,0.00,,2013-02-15 10:52:00,
2013-02-15 06:01:00,24.0,21.0,-100.00,WNW,293,7.0,8.0,89,0.00,,,0.00,,2013-02-15 11:01:00,
2013-02-15 06:11:00,24.0,21.0,-100.00,WNW,293,7.0,8.0,89,0.00,,,0.00,,2013-02-15 11:11:00,
2013-02-15 06:23:00,25.0,22.0,-100.00,West,270,8.0,12.0,90,0.00,,,0.00,,2013-02-15 11:23:00,
2013-02-15 06:32:00,24.0,22.0,-100.00,West,270,6.0,12.0,90,0.00,,,0.00,,2013-02-15 11:32:00,
2013-02-15 06:42:00,24.0,22.0,-100.00,West,270,6.0,12.0,90,0.00,,,0.00,,2013-02-15 11:42:00,
2013-02-15 06:52:00,24.0,22.0,-100.00,West,270,7.0,10.0,91,0.00,,,0.00,,2013-02-15 11:52:00,
2013-02-15 07:02:00,23.0,21.0,-100.00,West,270,8.0,12.0,90,0.00,,,0.00,,2013-02-15 12:02:00,
2013-02-15 07:11:00,23.0,21.0,-100.00,West,270,8.0,12.0,90,0.00,,,0.00,,2013-02-15 12:11:00,
2013-02-15 07:21:00,23.0,20.0,-100.00,West,270,6.0,10.0,89,0.00,,,0.00,,2013-02-15 12:21:00,
2013-02-15 07:32:00,23.0,20.0,-100.00,West,270,7.0,13.0,88,0.00,,,0.00,,2013-02-15 12:32:00,
2013-02-15 07:42:00,23.0,20.0,-100.00,West,270,7.0,13.0,88,0.00,,,0.00,,2013-02-15 12:42:00,
2013-02-15 07:52:00,23.0,20.0,-100.00,WSW,248,7.0,10.0,88,0.00,,,0.00,,2013-02-15 12:52:00,
2013-02-15 08:02:00,23.0,21.0,-100.00,WSW,248,6.0,13.0,90,0.00,,,0.00,,2013-02-15 13:02:00,
2013-02-15 08:11:00,23.0,20.0,-100.00,West,270,6.0,7.0,89,0.00,,,0.00,,2013-02-15 13:11:00,
2013-02-15 08:22:00,23.0,20.0,-100.00,West,270,6.0,7.0,89,0.00,,,0.00,,2013-02-15 13:22:00,
2013-02-15 08:32:00,23.0,20.0,-100.00,West,270,8.0,14.0,89,0.00,,,0.00,,2013-02-15 13:32:00,
2013-02-15 08:42:00,23.0,20.0,-100.00,West,270,8.0,14.0,89,0.00,,,0.00,,2013-02-15 13:42:00,
2013-02-15 08:52:00,23.0,20.0,-100.00,WNW,293,7.0,10.0,89,0.00,,,0.00,,2013-02-15 13:52:00,
2013-02-15 09:01:00,23.0,20.0,-100.00,WNW,293,9.0,13.0,88,0.00,,,0.00,,2013-02-15 14:01:00,
2013-02-15 09:12:00,23.0,20.0,-100.00,WNW,293,9.0,13.0,88,0.00,,,0.00,,2013-02-15 14:12:00,
2013-02-15 09:21:00,23.0,20.0,-100.00,West,270,13.0,17.0,88,0.00,,,0.00,,2013-02-15 14:21:00,
2013-02-15 09:32:00,23.0,20.0,-100.00,WNW,293,7.0,14.0,88,0.00,,,0.00,,2013-02-15 14:32:00,
2013-02-15 09:42:00,23.0,20.0,-100.00,WNW,293,7.0,14.0,88,0.00,,,0.00,,2013-02-15 14:42:00,
2013-02-15 09:52:00,24.0,21.0,-100.00,West,270,7.0,9.0,87,0.00,,,0.00,,2013-02-15 14:52:00,
2013-02-15 10:01:00,24.0,20.0,-100.00,West,270,3.0,6.0,84,0.00,,,0.00,,2013-02-15 15:01:00,
2013-02-15 10:11:00,24.0,20.0,-100.00,West,270,3.0,6.0,84,0.00,,,0.00,,2013-02-15 15:11:00,
2013-02-15 10:21:00,24.0,20.0,-100.00,WNW,293,6.0,10.0,83,0.00,,,0.00,,2013-02-15 15:21:00,
2013-02-15 10:32:00,24.0,19.0,-100.00,WNW,293,7.0,9.0,81,0.00,,,0.00,,2013-02-15 15:32:00,
2013-02-15 10:42:00,24.0,18.0,-100.00,WNW,293,6.0,6.0,79,0.00,,,0.00,,2013-02-15 15:42:00,
2013-02-15 10:52:00,24.0,18.0,-100.00,WNW,293,6.0,6.0,79,0.00,,,0.00,,2013-02-15 15:52:00,
2013-02-15 11:02:00,24.0,18.0,-100.00,WNW,293,6.0,9.0,77,0.00,,,0.00,,2013-02-15 16:02:00,
2013-02-15 11:11:00,24.0,18.0,-100.00,WNW,293,6.0,9.0,77,0.00,,,0.00,,2013-02-15 16:11:00,
2013-02-15 11:22:00,24.0,17.0,-100.00,West,270,6.0,10.0,75,0.00,,,0.00,,2013-02-15 16:22:00,
2013-02-15 11:32:00,26.0,19.0,-100.00,West,270,6.0,9.0,74,0.00,,,0.00,,2013-02-15 16:32:00,
2013-02-15 11:42:00,26.0,19.0,-100.00,West,270,6.0,9.0,74,0.00,,,0.00,,2013-02-15 16:42:00,
2013-02-15 11:52:00,26.0,18.0,-100.00,West,270,3.0,10.0,71,0.00,,,0.00,,2013-02-15 16:52:00,
2013-02-15 12:01:00,26.0,18.0,-100.00,WNW,293,6.0,9.0,71,0.00,,,0.00,,2013-02-15 17:01:00,
2013-02-15 12:11:00,25.0,17.0,-100.00,South,180,3.0,6.0,71,0.00,,,0.00,,2013-02-15 17:11:00,
2013-02-15 12:21:00,25.0,17.0,-100.00,South,180,3.0,6.0,71,0.00,,,0.00,,2013-02-15 17:21:00,
2013-02-15 12:32:00,26.0,18.0,-100.00,NW,315,3.0,9.0,71,0.00,,,0.00,,2013-02-15 17:32:00,
2013-02-15 12:42:00,26.0,18.0,-100.00,NW,315,3.0,9.0,71,0.00,,,0.00,,2013-02-15 17:42:00,
2013-02-15 12:52:00,25.0,17.0,-100.00,WNW,293,5.0,6.0,70,0.00,,,0.00,,2013-02-15 17:52:00,
2013-02-15 13:01:00,26.0,18.0,-100.00,WNW,293,6.0,7.0,70,0.00,,,0.00,,2013-02-15 18:01:00,
2013-02-15 13:11:00,26.0,18.0,-100.00,WNW,293,6.0,7.0,70,0.00,,,0.00,,2013-02-15 18:11:00,
2013-02-15 13:21:00,26.0,18.0,-100.00,West,270,6.0,8.0,70,0.00,,,0.00,,2013-02-15 18:21:00,
2013-02-15 13:32:00,25.0,17.0,-100.00,WNW,293,6.0,8.0,71,0.00,,,0.00,,2013-02-15 18:32:00,
2013-02-15 13:42:00,25.0,17.0,-100.00,WNW,293,6.0,8.0,71,0.00,,,0.00,,2013-02-15 18:42:00,
2013-02-15 13:53:00,26.0,18.0,-100.00,WNW,293,5.0,9.0,72,0.00,,,0.00,,2013-02-15 18:53:00,
2013-02-15 14:01:00,25.0,18.0,-100.00,WNW,293,5.0,8.0,75,0.00,,,0.00,,2013-02-15 19:01:00,
2013-02-15 14:11:00,25.0,18.0,-100.00,WNW,293,5.0,8.0,75,0.00,,,0.00,,2013-02-15 19:11:00,
2013-02-15 14:22:00,25.0,18.0,-100.00,WNW,293,3.0,7.0,74,0.00,,,0.00,,2013-02-15 19:22:00,
2013-02-15 14:32:00,25.0,17.0,-100.00,West,270,5.0,6.0,72,0.00,,,0.00,,2013-02-15 19:32:00,
2013-02-15 14:42:00,25.0,17.0,-100.00,West,270,5.0,6.0,72,0.00,,,0.00,,2013-02-15 19:42:00,
2013-02-15 14:52:00,25.0,17.0,-100.00,West,270,0.0,6.0,72,0.00,,,0.00,,2013-02-15 19:52:00,
2013-02-15 15:01:00,26.0,18.0,-100.00,NW,315,0.0,9.0,71,0.00,,,0.00,,2013-02-15 20:01:00,
2013-02-15 15:11:00,26.0,18.0,-100.00,NW,315,0.0,9.0,71,0.00,,,0.00,,2013-02-15 20:11:00,
2013-02-15 15:21:00,26.0,18.0,-100.00,WSW,248,2.0,6.0,72,0.00,,,0.00,,2013-02-15 20:21:00,
2013-02-15 15:32:00,25.0,17.0,-100.00,WNW,293,5.0,8.0,72,0.00,,,0.00,,2013-02-15 20:32:00,
2013-02-15 15:42:00,25.0,17.0,-100.00,WNW,293,5.0,8.0,72,0.00,,,0.00,,2013-02-15 20:42:00,
2013-02-15 15:52:00,26.0,18.0,-100.00,West,270,7.0,10.0,72,0.00,,,0.00,,2013-02-15 20:52:00,
2013-02-15 16:02:00,26.0,18.0,-100.00,West,270,8.0,9.0,71,0.00,,,0.00,,2013-02-15 21:02:00,
2013-02-15 16:11:00,26.0,18.0,-100.00,West,270,8.0,9.0,71,0.00,,,0.00,,2013-02-15 21:11:00,
2013-02-15 16:21:00,26.0,18.0,-100.00,West,270,5.0,7.0,72,0.00,,,0.00,,2013-02-15 21:21:00,
2013-02-15 16:32:00,25.0,17.0,-100.00,WNW,293,1.0,0.0,71,0.00,,,0.00,,2013-02-15 21:32:00,
2013-02-15 16:42:00,25.0,17.0,-100.00,WNW,293,1.0,0.0,71,0.00,,,0.00,,2013-02-15 21:42:00,
2013-02-15 16:52:00,26.0,18.0,-100.00,West,270,3.0,6.0,71,0.00,,,0.00,,2013-02-15 21:52:00,
2013-02-15 17:02:00,26.0,18.0,-100.00,West,270,5.0,9.0,72,0.00,,,0.00,,2013-02-15 22:02:00,
2013-02-15 17:11:00,25.0,18.0,-100.00,West,270,6.0,10.0,73,0.00,,,0.00,,2013-02-15 22:11:00,
2013-02-15 17:22:00,25.0,18.0,-100.00,West,270,6.0,10.0,73,0.00,,,0.00,,2013-02-15 22:22:00,
2013-02-15 17:32:00,26.0,18.0,-100.00,West,270,6.0,10.0,72,0.00,,,0.00,,2013-02-15 22:32:00,
2013-02-15 17:42:00,26.0,18.0,-100.00,West,270,6.0,10.0,72,0.00,,,0.00,,2013-02-15 22:42:00,
2013-02-15 17:52:00,26.0,18.0,-100.00,West,270,0.0,0.0,71,0.00,,,0.00,,2013-02-15 22:52:00,
2013-02-15 18:02:00,25.0,17.0,-100.00,WNW,293,6.0,10.0,72,0.00,,,0.00,,2013-02-15 23:02:00,
2013-02-15 18:11:00,25.0,17.0,-100.00,WNW,293,6.0,10.0,72,0.00,,,0.00,,2013-02-15 23:11:00,
2013-02-15 18:21:00,25.0,18.0,-100.00,WNW,293,2.0,7.0,73,0.00,,,0.00,,2013-02-15 23:21:00,
2013-02-15 18:32:00,25.0,18.0,-100.00,WNW,293,3.0,7.0,74,0.00,,,0.00,,2013-02-15 23:32:00,
2013-02-15 18:42:00,25.0,18.0,-100.00,WNW,293,3.0,7.0,74,0.00,,,0.00,,2013-02-15 23:42:00,
2013-02-15 18:52:00,25.0,18.0,-100.00,West,270,1.0,6.0,75,0.00,,,0.00,,2013-02-15 23:52:00,
2013-02-15 19:02:00,26.0,19.0,-100.00,West,270,3.0,5.0,75,0.00,,,0.00,,2013-02-16 00:02:00,
2013-02-15 19:11:00,26.0,19.0,-100.00,West,270,3.0,5.0,75,0.00,,,0.00,,2013-02-16 00:11:00,
2013-02-15 19:21:00,26.0,19.0,-100.00,WNW,293,2.0,6.0,76,0.00,,,0.00,,2013-02-16 00:21:00,
2013-02-15 19:32:00,25.0,19.0,-100.00,WNW,293,0.0,6.0,77,0.00,,,0.00,,2013-02-16 00:32:00,
2013-02-15 19:41:00,25.0,19.0,-100.00,WNW,293,0.0,6.0,77,0.00,,,0.00,,2013-02-16 00:41:00,
2013-02-15 19:52:00,25.0,19.0,-100.00,West,270,3.0,5.0,78,0.00,,,0.00,,2013-02-16 00:52:00,
2013-02-15 20:02:00,25.0,19.0,-100.00,WNW,293,3.0,7.0,79,0.00,,,0.00,,2013-02-16 01:02:00,
2013-02-15 20:11:00,25.0,19.0,-100.00,WNW,293,3.0,7.0,79,0.00,,,0.00,,2013-02-16 01:11:00,
2013-02-15 20:21:00,25.0,20.0,-100.00,West,270,3.0,6.0,82,0.00,,,0.00,,2013-02-16 01:21:00,
2013-02-15 20:32:00,25.0,21.0,-100.00,WSW,248,3.0,5.0,83,0.00,,,0.00,,2013-02-16 01:32:00,
2013-02-15 20:42:00,25.0,21.0,-100.00,WSW,248,3.0,5.0,83,0.00,,,0.00,,2013-02-16 01:42:00,
2013-02-15 20:52:00,25.0,21.0,-100.00,WSW,248,0.0,0.0,84,0.00,,,0.00,,2013-02-16 01:52:00,
2013-02-15 21:01:00,24.0,20.0,-100.00,West,270,0.0,0.0,86,0.00,,,0.00,,2013-02-16 02:01:00,
2013-02-15 21:11:00,25.0,22.0,-100.00,West,270,1.0,6.0,87,0.00,,,0.00,,2013-02-16 02:11:00,
2013-02-15 21:21:00,25.0,22.0,-100.00,West,270,1.0,6.0,87,0.00,,,0.00,,2013-02-16 02:21:00,
2013-02-15 21:32:00,24.0,21.0,-100.00,WNW,293,5.0,6.0,87,0.00,,,0.00,,2013-02-16 02:32:00,
2013-02-15 21:42:00,24.0,21.0,-100.00,WNW,293,5.0,6.0,87,0.00,,,0.00,,2013-02-16 02:42:00,
2013-02-15 21:52:00,24.0,22.0,-100.00,WSW,248,6.0,8.0,91,0.00,,,0.00,,2013-02-16 02:52:00,
2013-02-15 22:02:00,23.0,21.0,-100.00,WNW,293,8.0,8.0,92,0.00,,,0.00,,2013-02-16 03:02:00,
2013-02-15 22:11:00,23.0,20.0,-100.00,WNW,293,6.0,9.0,88,0.00,,,0.00,,2013-02-16 03:11:00,
2013-02-15 22:21:00,23.0,20.0,-100.00,WNW,293,6.0,9.0,88,0.00,,,0.00,,2013-02-16 03:21:00,
2013-02-15 22:32:00,23.0,19.0,-100.00,West,270,10.0,14.0,84,0.00,,,0.00,,2013-02-16 03:32:00,
2013-02-15 22:42:00,23.0,19.0,-100.00,West,270,10.0,14.0,84,0.00,,,0.00,,2013-02-16 03:42:00,
2013-02-15 22:52:00,23.0,19.0,-100.00,WNW,293,7.0,15.0,83,0.00,,,0.00,,2013-02-16 03:52:00,
2013-02-15 23:01:00,23.0,19.0,-100.00,WNW,293,7.0,9.0,85,0.00,,,0.00,,2013-02-16 04:01:00,
2013-02-15 23:11:00,22.0,19.0,-100.00,West,270,8.0,10.0,87,0.00,,,0.00,,2013-02-16 04:11:00,
2013-02-15 23:21:00,22.0,19.0,-100.00,West,270,8.0,10.0,87,0.00,,,0.00,,2013-02-16 04:21:00,
2013-02-15 23:32:00,22.0,19.0,-100.00,WNW,293,1.0,7.0,88,0.00,,,0.00,,2013-02-16 04:32:00,
2013-02-15 23:42:00,22.0,19.0,-100.00,WNW,293,1.0,7.0,88,0.00,,,0.00,,2013-02-16 04:42:00,
2013-02-15 23:52:00,22.0,19.0,-100.00,WNW,293,3.0,8.0,89,0.00,,,0.00,,2013-02-16 04:52:00,